• In Uzbekistan
  • List of Countries
  • For 7 days
  • Water Temperature
  • Satellite Maps
  • Weather Map
  • Weather Widgets
  • user-avatar
    Login

    Hourly Weather Shalim

    Today, 19 December, Wednesday

    Time Temperature Precipitation Wind Pressure Humidity
    00:00 +22°C° 0 mm 4 mps 740 mmHg 67%
    01:00 +21°C° 0 mm 3 mps 740 mmHg 69%
    02:00 +21°C° 0 mm 3 mps 740 mmHg 70%
    03:00 +21°C° 0 mm 3 mps 740 mmHg 71%
    04:00 +20°C° 0 mm 3 mps 740 mmHg 72%
    05:00 +20°C° 0 mm 3 mps 740 mmHg 72%
    06:00 +20°C° 0 mm 3 mps 740 mmHg 72%
    07:00 +19°C° 0 mm 3 mps 740 mmHg 72%
    08:00 +21°C° 0 mm 3 mps 740 mmHg 63%
    09:00 +22°C° 0 mm 3 mps 741 mmHg 53%
    10:00 +25°C° 0 mm 4 mps 741 mmHg 43%
    11:00 +26°C° 0 mm 4 mps 741 mmHg 38%
    12:00 +27°C° 0 mm 4 mps 740 mmHg 32%
    13:00 +28°C° 0 mm 5 mps 740 mmHg 26%
    14:00 +28°C° 0 mm 5 mps 740 mmHg 26%
    15:00 +28°C° 0 mm 5 mps 739 mmHg 25%
    16:00 +29°C° 0 mm 5 mps 739 mmHg 24%
    17:00 +28°C° 0 mm 4 mps 739 mmHg 26%
    18:00 +27°C° 0 mm 4 mps 739 mmHg 28%
    19:00 +25°C° 0 mm 4 mps 740 mmHg 30%
    20:00 +25°C° 0 mm 4 mps 740 mmHg 31%
    21:00 +23°C° 0 mm 4 mps 740 mmHg 32%
    22:00 +22°C° 0 mm 3 mps 740 mmHg 33%
    23:00 +22°C° 0 mm 3 mps 740 mmHg 35%

    Tomorrow, 20 December, Thursday

    Time Temperature Precipitation Wind Pressure Humidity
    00:00 +21°C° 0 mm 3 mps 739 mmHg 36%
    01:00 +21°C° 0 mm 2 mps 739 mmHg 37%
    02:00 +20°C° 0 mm 2 mps 739 mmHg 38%
    03:00 +20°C° 0 mm 2 mps 739 mmHg 38%
    04:00 +19°C° 0 mm 2 mps 739 mmHg 39%
    05:00 +19°C° 0 mm 2 mps 739 mmHg 39%
    06:00 +19°C° 0 mm 2 mps 740 mmHg 38%
    07:00 +18°C° 0 mm 2 mps 740 mmHg 38%
    08:00 +20°C° 0 mm 2 mps 740 mmHg 34%
    09:00 +22°C° 0 mm 3 mps 741 mmHg 30%
    10:00 +25°C° 0 mm 3 mps 741 mmHg 25%
    11:00 +26°C° 0 mm 3 mps 741 mmHg 23%
    12:00 +27°C° 0 mm 3 mps 740 mmHg 21%
    13:00 +27°C° 0 mm 3 mps 739 mmHg 19%
    14:00 +28°C° 0 mm 3 mps 739 mmHg 19%
    15:00 +28°C° 0 mm 3 mps 738 mmHg 19%
    16:00 +28°C° 0 mm 3 mps 738 mmHg 19%
    17:00 +27°C° 0 mm 3 mps 738 mmHg 22%
    18:00 +26°C° 0 mm 3 mps 738 mmHg 26%
    19:00 +25°C° 0 mm 3 mps 739 mmHg 30%
    20:00 +24°C° 0 mm 3 mps 739 mmHg 35%
    21:00 +23°C° 0 mm 2 mps 739 mmHg 40%
    22:00 +23°C° 0 mm 2 mps 739 mmHg 44%
    23:00 +21°C° 0 mm 2 mps 739 mmHg 50%

    Day after tomorrow, 21 December, Friday

    Time Temperature Precipitation Wind Pressure Humidity
    00:00 +21°C° 0 mm 2 mps 739 mmHg 55%
    01:00 +20°C° 0 mm 2 mps 739 mmHg 60%
    02:00 +20°C° 0 mm 2 mps 738 mmHg 64%
    03:00 +19°C° 0 mm 2 mps 738 mmHg 68%
    04:00 +20°C° 0 mm 1 mps 738 mmHg 72%
    05:00 +20°C° 0 mm 1 mps 738 mmHg 72%
    06:00 +19°C° 0 mm 1 mps 738 mmHg 73%
    07:00 +19°C° 0 mm 1 mps 739 mmHg 74%
    08:00 +21°C° 0 mm 1 mps 739 mmHg 65%
    09:00 +22°C° 0 mm 1 mps 739 mmHg 56%
    10:00 +24°C° 0 mm 2 mps 740 mmHg 46%
    11:00 +25°C° 0 mm 2 mps 739 mmHg 40%
    12:00 +26°C° 0 mm 3 mps 739 mmHg 34%
    13:00 +28°C° 0 mm 3 mps 738 mmHg 29%
    14:00 +28°C° 0 mm 3 mps 738 mmHg 28%
    15:00 +28°C° 0 mm 3 mps 737 mmHg 27%
    16:00 +28°C° 0 mm 3 mps 737 mmHg 26%
    17:00 +27°C° 0 mm 3 mps 737 mmHg 29%
    18:00 +26°C° 0 mm 2 mps 737 mmHg 32%
    19:00 +25°C° 0 mm 2 mps 738 mmHg 35%
    20:00 +24°C° 0 mm 2 mps 738 mmHg 38%
    21:00 +24°C° 0 mm 2 mps 738 mmHg 41%
    22:00 +23°C° 0 mm 2 mps 738 mmHg 44%
    23:00 +23°C° 0 mm 1 mps 738 mmHg 48%

    22 December, Saturday

    Time Temperature Precipitation Wind Pressure Humidity
    00:00 +22°C° 0 mm 1 mps 737 mmHg 51%
    01:00 +21°C° 0 mm 1 mps 737 mmHg 55%
    02:00 +21°C° 0 mm 1 mps 737 mmHg 56%
    03:00 +20°C° 0 mm 1 mps 737 mmHg 58%
    04:00 +20°C° 0 mm 1 mps 736 mmHg 60%
    05:00 +20°C° 0 mm 1 mps 737 mmHg 59%
    06:00 +19°C° 0 mm 1 mps 737 mmHg 58%
    07:00 +19°C° 0 mm 1 mps 738 mmHg 58%
    08:00 +20°C° 0 mm 2 mps 738 mmHg 49%
    09:00 +23°C° 0 mm 2 mps 739 mmHg 41%
    10:00 +25°C° 0 mm 3 mps 740 mmHg 33%
    11:00 +26°C° 0 mm 3 mps 739 mmHg 29%
    12:00 +27°C° 0 mm 3 mps 738 mmHg 26%
    13:00 +28°C° 0 mm 4 mps 738 mmHg 23%
    14:00 +28°C° 0 mm 4 mps 737 mmHg 21%
    15:00 +28°C° 0 mm 4 mps 737 mmHg 20%
    16:00 +29°C° 0 mm 5 mps 736 mmHg 18%
    17:00 +27°C° 0 mm 4 mps 737 mmHg 20%
    18:00 +26°C° 0 mm 4 mps 737 mmHg 22%
    19:00 +25°C° 0 mm 3 mps 738 mmHg 24%
    20:00 +24°C° 0 mm 3 mps 738 mmHg 25%
    21:00 +24°C° 0 mm 3 mps 738 mmHg 26%
    22:00 +22°C° 0 mm 3 mps 738 mmHg 27%
    23:00 +22°C° 0 mm 3 mps 738 mmHg 28%

    23 December, Sunday

    Time Temperature Precipitation Wind Pressure Humidity
    00:00 +21°C° 0 mm 3 mps 738 mmHg 28%
    01:00 +21°C° 0 mm 3 mps 738 mmHg 29%
    02:00 +21°C° 0 mm 3 mps 738 mmHg 30%
    03:00 +21°C° 0 mm 4 mps 738 mmHg 32%
    04:00 +21°C° 0 mm 4 mps 738 mmHg 34%
    05:00 +20°C° 0 mm 4 mps 738 mmHg 42%
    06:00 +19°C° 0 mm 5 mps 738 mmHg 51%
    07:00 +19°C° 0 mm 5 mps 739 mmHg 60%
    08:00 +20°C° 0 mm 6 mps 739 mmHg 58%
    09:00 +21°C° 0 mm 6 mps 740 mmHg 55%
    10:00 +22°C° 0 mm 7 mps 740 mmHg 53%
    11:00 +24°C° 0 mm 7 mps 740 mmHg 47%
    12:00 +26°C° 0 mm 7 mps 739 mmHg 41%
    13:00 +27°C° 0 mm 7 mps 739 mmHg 35%
    14:00 +27°C° 0 mm 7 mps 738 mmHg 33%
    15:00 +27°C° 0 mm 7 mps 738 mmHg 31%
    16:00 +27°C° 0 mm 7 mps 738 mmHg 29%
    17:00 +26°C° 0 mm 6 mps 738 mmHg 30%
    18:00 +25°C° 0 mm 5 mps 739 mmHg 31%
    19:00 +23°C° 0 mm 5 mps 739 mmHg 32%
    20:00 +23°C° 0 mm 5 mps 739 mmHg 32%
    21:00 +22°C° 0 mm 5 mps 740 mmHg 32%
    22:00 +21°C° 0 mm 5 mps 740 mmHg 32%
    23:00 +21°C° 0 mm 5 mps 740 mmHg 33%

    24 December, Monday

    Time Temperature Precipitation Wind Pressure Humidity
    00:00 +20°C° 0 mm 5 mps 739 mmHg 34%
    01:00 +20°C° 0 mm 5 mps 739 mmHg 35%
    02:00 +19°C° 0 mm 5 mps 739 mmHg 36%
    03:00 +19°C° 0 mm 5 mps 739 mmHg 37%
    04:00 +17°C° 0 mm 5 mps 739 mmHg 39%
    05:00 +17°C° 0 mm 5 mps 739 mmHg 41%
    06:00 +16°C° 0 mm 6 mps 740 mmHg 43%
    07:00 +16°C° 0 mm 6 mps 740 mmHg 45%
    08:00 +17°C° 0 mm 6 mps 740 mmHg 47%
    09:00 +20°C° 0 mm 7 mps 741 mmHg 49%
    10:00 +21°C° 0 mm 7 mps 741 mmHg 51%
    11:00 +22°C° 0 mm 7 mps 740 mmHg 46%
    12:00 +23°C° 0 mm 7 mps 740 mmHg 41%
    13:00 +24°C° 0 mm 7 mps 739 mmHg 36%
    14:00 +26°C° 0 mm 7 mps 738 mmHg 34%
    15:00 +26°C° 0 mm 7 mps 738 mmHg 33%
    16:00 +26°C° 0 mm 7 mps 738 mmHg 31%
    17:00 +24°C° 0 mm 6 mps 738 mmHg 33%
    18:00 +23°C° 0 mm 5 mps 738 mmHg 36%
    19:00 +22°C° 0 mm 5 mps 739 mmHg 38%
    20:00 +22°C° 0 mm 5 mps 739 mmHg 40%
    21:00 +21°C° 0 mm 5 mps 739 mmHg 41%
    22:00 +21°C° 0 mm 5 mps 739 mmHg 43%
    23:00 +20°C° 0 mm 5 mps 739 mmHg 45%
    Show more